User: anonymous   Login
Location: Mentone
(34.5413°N, 85.5351°W)
Time: 15:22:36
(UTC-05:00)
Language:

ADEOS Rocket - Orbit

View from above orbital plane
View from above orbital plane
View from above satellite
View from above satellite

Ground track
Ground track

The orbit data is extracted from the following two-line orbital elements,

1 24279U 96046C   18112.36731072 -.00000028  00000-0  12628-4 0  9995
2 24279  98.7690  23.4339 0299298 220.9375 251.5558 13.47104744 65878
Epoch (UTC): 22 April 2018 08:48:55
Eccentricity: 0.0299298
inclination: 98.7690°
perigee height: 859 km
apogee height: 1306 km
right ascension of ascending node: 23.4339°
argument of perigee: 220.9375°
revolutions per day: 13.47104744
mean anomaly at epoch: 251.5558°
orbit number at epoch: 6587

The dashed part of the orbit path shows where the satellite is in the earth's shadow,  

DLR